Time,TemperatureF,DewpointF,PressureIn,WindDirection,WindDirectionDegrees,WindSpeedMPH,WindSpeedGustMPH,Humidity,HourlyPrecipIn,Conditions,Clouds,dailyrainin,SolarRadiationWatts/m^2,SoftwareType,DateUTC
2013-10-21 00:11:00,45.8,38.0,29.88,SSE,167,4.0,-999.0,74,-99.99,,,0.00,0,weatherlink.com 1.10,2013-10-21 05:11:00,
2013-10-21 00:26:00,44.9,37.0,29.88,SSE,147,2.0,-999.0,73,-99.99,,,0.00,0,weatherlink.com 1.10,2013-10-21 05:26:00,
2013-10-21 00:41:00,43.8,36.0,29.89,South,171,3.0,-999.0,73,-99.99,,,0.00,0,weatherlink.com 1.10,2013-10-21 05:41:00,
2013-10-21 00:56:00,43.1,35.0,29.90,South,175,0.0,-999.0,73,-99.99,,,0.00,0,weatherlink.com 1.10,2013-10-21 05:56:00,
2013-10-21 01:11:00,42.6,35.0,29.90,SE,135,0.0,-999.0,74,-99.99,,,0.00,0,weatherlink.com 1.10,2013-10-21 06:11:00,
2013-10-21 01:26:00,42.9,34.0,29.91,South,178,3.0,-999.0,72,-99.99,,,0.00,0,weatherlink.com 1.10,2013-10-21 06:26:00,
2013-10-21 01:41:00,43.1,34.0,29.92,South,171,5.0,-999.0,70,-99.99,,,0.00,0,weatherlink.com 1.10,2013-10-21 06:41:00,
2013-10-21 01:56:00,42.9,33.0,29.92,South,178,7.0,-999.0,68,-99.99,,,0.00,0,weatherlink.com 1.10,2013-10-21 06:56:00,
2013-10-21 02:19:00,42.1,32.0,29.93,South,171,3.0,-999.0,68,-99.99,,,0.00,0,weatherlink.com 1.10,2013-10-21 07:19:00,
2013-10-21 02:26:00,41.9,32.0,29.93,South,188,0.0,-999.0,68,-99.99,,,0.00,0,weatherlink.com 1.10,2013-10-21 07:26:00,
2013-10-21 02:41:00,41.9,32.0,29.93,South,174,1.0,-999.0,68,-99.99,,,0.00,0,weatherlink.com 1.10,2013-10-21 07:41:00,
2013-10-21 02:56:00,41.6,32.0,29.94,SSE,155,0.0,-999.0,69,-99.99,,,0.00,0,weatherlink.com 1.10,2013-10-21 07:56:00,
2013-10-21 03:11:00,41.3,32.0,29.95,SSE,157,0.0,-999.0,70,-99.99,,,0.00,0,weatherlink.com 1.10,2013-10-21 08:11:00,
2013-10-21 03:28:00,40.1,32.0,29.95,SSE,167,0.0,-999.0,72,-99.99,,,0.00,0,weatherlink.com 1.10,2013-10-21 08:28:00,
2013-10-21 03:41:00,39.3,31.0,29.95,SSE,167,0.0,-999.0,73,-99.99,,,0.00,0,weatherlink.com 1.10,2013-10-21 08:41:00,
2013-10-21 03:56:00,38.8,32.0,29.95,SSE,166,0.0,-999.0,75,-99.99,,,0.00,0,weatherlink.com 1.10,2013-10-21 08:56:00,
2013-10-21 04:11:00,38.2,32.0,29.96,SSE,167,0.0,-999.0,77,-99.99,,,0.00,0,weatherlink.com 1.10,2013-10-21 09:11:00,
2013-10-21 04:26:00,37.6,31.0,29.97,SSE,167,0.0,-999.0,78,-99.99,,,0.00,0,weatherlink.com 1.10,2013-10-21 09:26:00,
2013-10-21 04:41:00,37.3,32.0,29.97,SSE,167,0.0,-999.0,80,-99.99,,,0.00,0,weatherlink.com 1.10,2013-10-21 09:41:00,
2013-10-21 04:56:00,37.5,32.0,29.97,SSE,167,0.0,-999.0,81,-99.99,,,0.00,0,weatherlink.com 1.10,2013-10-21 09:56:00,
2013-10-21 05:11:00,37.8,32.0,29.97,SSE,166,0.0,-999.0,80,-99.99,,,0.00,0,weatherlink.com 1.10,2013-10-21 10:11:00,
2013-10-21 05:26:00,37.9,32.0,29.97,SSE,167,0.0,-999.0,80,-99.99,,,0.00,0,weatherlink.com 1.10,2013-10-21 10:26:00,
2013-10-21 05:49:00,37.6,33.0,29.98,SSE,167,0.0,-999.0,82,-99.99,,,0.00,0,weatherlink.com 1.10,2013-10-21 10:49:00,
2013-10-21 05:56:00,37.3,33.0,29.98,SSE,167,0.0,-999.0,83,-99.99,,,0.00,0,weatherlink.com 1.10,2013-10-21 10:56:00,
2013-10-21 06:11:00,37.2,33.0,29.98,SSE,167,0.0,-999.0,84,-99.99,,,0.00,0,weatherlink.com 1.10,2013-10-21 11:11:00,
2013-10-21 06:26:00,37.2,33.0,29.98,SSE,167,0.0,-999.0,83,-99.99,,,0.00,0,weatherlink.com 1.10,2013-10-21 11:26:00,
2013-10-21 06:41:00,37.6,33.0,29.99,SSE,167,0.0,-999.0,83,-99.99,,,0.00,0,weatherlink.com 1.10,2013-10-21 11:41:00,
2013-10-21 06:58:00,37.9,33.0,29.99,SSE,167,0.0,-999.0,81,-99.99,,,0.00,0,weatherlink.com 1.10,2013-10-21 11:58:00,
2013-10-21 07:11:00,38.0,32.0,29.99,SSE,167,0.0,-999.0,80,-99.99,,,0.00,0,weatherlink.com 1.10,2013-10-21 12:11:00,
2013-10-21 07:26:00,37.5,31.0,30.00,SSE,166,0.0,-999.0,77,-99.99,,,0.00,0,weatherlink.com 1.10,2013-10-21 12:26:00,
2013-10-21 07:41:00,36.9,29.0,30.01,SSE,166,0.0,-999.0,74,-99.99,,,0.00,0,weatherlink.com 1.10,2013-10-21 12:41:00,
2013-10-21 07:57:00,36.6,29.0,30.01,SSE,166,0.0,-999.0,74,-99.99,,,0.00,11,weatherlink.com 1.10,2013-10-21 12:57:00,
2013-10-21 08:12:00,36.3,29.0,30.02,SSE,166,0.0,-999.0,75,-99.99,,,0.00,19,weatherlink.com 1.10,2013-10-21 13:12:00,
2013-10-21 08:27:00,36.9,29.0,30.03,SSE,166,0.0,-999.0,74,-99.99,,,0.00,49,weatherlink.com 1.10,2013-10-21 13:27:00,
2013-10-21 08:42:00,37.6,30.0,30.04,SSE,166,0.0,-999.0,73,-99.99,,,0.00,47,weatherlink.com 1.10,2013-10-21 13:42:00,
2013-10-21 08:57:00,37.8,30.0,30.04,SSE,166,0.0,-999.0,73,-99.99,,,0.00,69,weatherlink.com 1.10,2013-10-21 13:57:00,
2013-10-21 09:19:00,37.6,29.0,30.05,SSE,166,0.0,-999.0,72,-99.99,,,0.00,40,weatherlink.com 1.10,2013-10-21 14:19:00,
2013-10-21 09:27:00,37.9,29.0,30.05,ENE,73,1.0,-999.0,71,-99.99,,,0.00,44,weatherlink.com 1.10,2013-10-21 14:27:00,
2013-10-21 09:42:00,38.6,28.0,30.05,ENE,73,0.0,-999.0,67,-99.99,,,0.00,100,weatherlink.com 1.10,2013-10-21 14:42:00,
2013-10-21 09:57:00,39.5,28.0,30.04,South,182,0.0,-999.0,63,-99.99,,,0.00,56,weatherlink.com 1.10,2013-10-21 14:57:00,
2013-10-21 10:12:00,40.2,26.0,30.04,East,79,0.0,-999.0,57,-99.99,,,0.00,100,weatherlink.com 1.10,2013-10-21 15:12:00,
2013-10-21 10:29:00,40.9,26.0,30.05,East,98,0.0,-999.0,56,-99.99,,,0.00,120,weatherlink.com 1.10,2013-10-21 15:29:00,
2013-10-21 10:42:00,41.6,26.0,30.05,East,88,1.0,-999.0,55,-99.99,,,0.00,202,weatherlink.com 1.10,2013-10-21 15:42:00,
2013-10-21 10:57:00,42.9,26.0,30.04,SSE,150,0.0,-999.0,51,-99.99,,,0.00,520,weatherlink.com 1.10,2013-10-21 15:57:00,
2013-10-21 11:12:00,44.1,27.0,30.04,SSW,194,0.0,-999.0,51,-99.99,,,0.00,555,weatherlink.com 1.10,2013-10-21 16:12:00,
2013-10-21 11:27:00,44.2,26.0,30.04,ESE,121,0.0,-999.0,49,-99.99,,,0.00,582,weatherlink.com 1.10,2013-10-21 16:27:00,
2013-10-21 11:42:00,44.6,26.0,30.04,South,186,1.0,-999.0,48,-99.99,,,0.00,605,weatherlink.com 1.10,2013-10-21 16:42:00,
2013-10-21 11:57:00,45.4,27.0,30.04,ENE,68,0.0,-999.0,48,-99.99,,,0.00,622,weatherlink.com 1.10,2013-10-21 16:57:00,
2013-10-21 12:12:00,46.5,27.0,30.03,South,178,3.0,-999.0,46,-99.99,,,0.00,642,weatherlink.com 1.10,2013-10-21 17:12:00,
2013-10-21 12:27:00,46.2,26.0,30.03,South,185,3.0,-999.0,46,-99.99,,,0.00,668,weatherlink.com 1.10,2013-10-21 17:27:00,
2013-10-21 12:49:00,46.0,27.0,30.01,East,89,2.0,-999.0,48,-99.99,,,0.00,710,weatherlink.com 1.10,2013-10-21 17:49:00,
2013-10-21 12:57:00,46.5,27.0,30.01,ESE,115,0.0,-999.0,46,-99.99,,,0.00,236,weatherlink.com 1.10,2013-10-21 17:57:00,
2013-10-21 13:12:00,46.5,28.0,30.01,ESE,104,4.0,-999.0,49,-99.99,,,0.00,464,weatherlink.com 1.10,2013-10-21 18:12:00,
2013-10-21 13:27:00,47.3,28.0,30.00,South,189,0.0,-999.0,47,-99.99,,,0.00,155,weatherlink.com 1.10,2013-10-21 18:27:00,
2013-10-21 13:42:00,47.3,28.0,29.99,SE,146,2.0,-999.0,47,-99.99,,,0.00,232,weatherlink.com 1.10,2013-10-21 18:42:00,
2013-10-21 14:01:00,47.6,29.0,29.98,SE,132,0.0,-999.0,48,-99.99,,,0.00,223,weatherlink.com 1.10,2013-10-21 19:01:00,
2013-10-21 14:12:00,47.9,30.0,29.97,East,93,2.0,-999.0,50,-99.99,,,0.00,199,weatherlink.com 1.10,2013-10-21 19:12:00,
2013-10-21 14:27:00,47.6,29.0,29.97,ENE,67,1.0,-999.0,49,-99.99,,,0.00,127,weatherlink.com 1.10,2013-10-21 19:27:00,
2013-10-21 14:42:00,48.2,29.0,29.97,East,87,1.0,-999.0,48,-99.99,,,0.00,142,weatherlink.com 1.10,2013-10-21 19:42:00,
2013-10-21 14:57:00,47.9,30.0,29.96,SE,140,3.0,-999.0,50,-99.99,,,0.00,90,weatherlink.com 1.10,2013-10-21 19:57:00,
2013-10-21 15:12:00,47.6,29.0,29.96,ESE,104,1.0,-999.0,48,-99.99,,,0.00,86,weatherlink.com 1.10,2013-10-21 20:12:00,
2013-10-21 15:27:00,49.4,29.0,29.96,SSE,151,3.0,-999.0,45,-99.99,,,0.00,74,weatherlink.com 1.10,2013-10-21 20:27:00,
2013-10-21 15:42:00,48.2,28.0,29.96,East,86,0.0,-999.0,46,-99.99,,,0.00,98,weatherlink.com 1.10,2013-10-21 20:42:00,
2013-10-21 15:57:00,47.7,28.0,29.96,ESE,108,1.0,-999.0,47,-99.99,,,0.00,93,weatherlink.com 1.10,2013-10-21 20:57:00,
2013-10-21 16:19:00,48.2,28.0,29.97,ESE,113,2.0,-999.0,46,-99.99,,,0.00,84,weatherlink.com 1.10,2013-10-21 21:19:00,
2013-10-21 16:27:00,48.2,28.0,29.97,SSE,149,0.0,-999.0,45,-99.99,,,0.00,65,weatherlink.com 1.10,2013-10-21 21:27:00,
2013-10-21 16:42:00,48.9,28.0,29.97,ENE,58,0.0,-999.0,45,-99.99,,,0.00,63,weatherlink.com 1.10,2013-10-21 21:42:00,
2013-10-21 16:57:00,48.8,29.0,29.97,East,84,0.0,-999.0,46,-99.99,,,0.00,60,weatherlink.com 1.10,2013-10-21 21:57:00,
2013-10-21 17:12:00,48.6,28.0,29.97,East,84,0.0,-999.0,45,-99.99,,,0.00,40,weatherlink.com 1.10,2013-10-21 22:12:00,
2013-10-21 17:28:00,48.2,27.0,29.97,East,90,0.0,-999.0,44,-99.99,,,0.00,51,weatherlink.com 1.10,2013-10-21 22:28:00,
2013-10-21 17:42:00,47.6,27.0,29.97,ENE,59,0.0,-999.0,45,-99.99,,,0.00,26,weatherlink.com 1.10,2013-10-21 22:42:00,
2013-10-21 17:57:00,46.7,28.0,29.98,East,83,0.0,-999.0,48,-99.99,,,0.00,11,weatherlink.com 1.10,2013-10-21 22:57:00,
2013-10-21 18:12:00,45.7,28.0,29.98,East,80,0.0,-999.0,50,-99.99,,,0.00,5,weatherlink.com 1.10,2013-10-21 23:12:00,
2013-10-21 18:27:00,44.5,28.0,29.98,East,80,0.0,-999.0,53,-99.99,,,0.00,0,weatherlink.com 1.10,2013-10-21 23:27:00,
2013-10-21 18:42:00,43.5,28.0,29.98,East,80,0.0,-999.0,55,-99.99,,,0.00,0,weatherlink.com 1.10,2013-10-21 23:42:00,
2013-10-21 18:57:00,42.9,28.0,29.99,East,80,0.0,-999.0,56,-99.99,,,0.00,0,weatherlink.com 1.10,2013-10-21 23:57:00,
2013-10-21 19:12:00,42.3,29.0,29.98,East,80,0.0,-999.0,59,-99.99,,,0.00,0,weatherlink.com 1.10,2013-10-22 00:12:00,
2013-10-21 19:27:00,41.8,29.0,29.99,East,80,0.0,-999.0,60,-99.99,,,0.00,0,weatherlink.com 1.10,2013-10-22 00:27:00,
2013-10-21 19:48:00,41.3,29.0,29.98,East,80,0.0,-999.0,61,-99.99,,,0.00,0,weatherlink.com 1.10,2013-10-22 00:48:00,
2013-10-21 19:57:00,41.2,30.0,29.98,East,80,0.0,-999.0,65,-99.99,,,0.00,0,weatherlink.com 1.10,2013-10-22 00:57:00,
2013-10-21 20:12:00,40.8,29.0,29.98,East,80,0.0,-999.0,62,-99.99,,,0.00,0,weatherlink.com 1.10,2013-10-22 01:12:00,
2013-10-21 20:27:00,40.1,30.0,29.98,East,80,0.0,-999.0,68,-99.99,,,0.00,0,weatherlink.com 1.10,2013-10-22 01:27:00,
2013-10-21 20:42:00,39.5,30.0,29.98,East,80,0.0,-999.0,69,-99.99,,,0.00,0,weatherlink.com 1.10,2013-10-22 01:42:00,
2013-10-21 20:59:00,39.2,30.0,29.98,East,80,0.0,-999.0,70,-99.99,,,0.00,0,weatherlink.com 1.10,2013-10-22 01:59:00,
2013-10-21 21:12:00,39.2,31.0,29.97,East,80,0.0,-999.0,72,-99.99,,,0.00,0,weatherlink.com 1.10,2013-10-22 02:12:00,
2013-10-21 21:27:00,38.9,31.0,29.96,East,80,0.0,-999.0,72,-99.99,,,0.00,0,weatherlink.com 1.10,2013-10-22 02:27:00,
2013-10-21 21:42:00,39.3,32.0,29.96,East,80,0.0,-999.0,76,-99.99,,,0.00,0,weatherlink.com 1.10,2013-10-22 02:42:00,
2013-10-21 21:57:00,39.5,32.0,29.97,East,80,0.0,-999.0,74,-99.99,,,0.00,0,weatherlink.com 1.10,2013-10-22 02:57:00,
2013-10-21 22:12:00,39.9,32.0,29.97,East,80,0.0,-999.0,74,-99.99,,,0.00,0,weatherlink.com 1.10,2013-10-22 03:12:00,
2013-10-21 22:28:00,40.1,33.0,29.97,East,80,0.0,-999.0,75,-99.99,,,0.00,0,weatherlink.com 1.10,2013-10-22 03:28:00,
2013-10-21 22:42:00,40.2,33.0,29.97,East,80,0.0,-999.0,76,-99.99,,,0.00,0,weatherlink.com 1.10,2013-10-22 03:42:00,
2013-10-21 22:58:00,40.2,33.0,29.96,East,80,0.0,-999.0,75,-99.99,,,0.00,0,weatherlink.com 1.10,2013-10-22 03:58:00,
2013-10-21 23:18:00,40.3,34.0,29.95,East,80,0.0,-999.0,79,-99.99,,,0.00,0,weatherlink.com 1.10,2013-10-22 04:18:00,
2013-10-21 23:27:00,40.3,35.0,29.95,East,80,0.0,-999.0,80,-99.99,,,0.00,0,weatherlink.com 1.10,2013-10-22 04:27:00,
2013-10-21 23:42:00,40.3,35.0,29.95,East,80,0.0,-999.0,80,-99.99,,,0.00,0,weatherlink.com 1.10,2013-10-22 04:42:00,
2013-10-21 23:58:00,40.2,35.0,29.95,East,80,0.0,-999.0,80,-99.99,,,0.00,0,weatherlink.com 1.10,2013-10-22 04:58:00,